Location: Grasslands National Park East Block
(49.0708°N, 106.5295°W)
Time: 14:07:54
(UTC-06:00)

SR - Pass Details

Date: 25 October 2019
Orbit: 574 x 882 km, 66.7° (Epoch: 14 November)

Event Time Altitude Azimuth Distance (km) Brightness Sun altitude
Exits shadow 03:36:23 16° 8° (N) 2,125 ? -39.6°
Maximum altitude 03:37:13 16° 18° (NNE) 2,106 ? -39.5°
Drops below altitude 10° 03:40:49 10° 56° (NE) 2,540 ? -39.0°
Sets 03:44:23 0° 77° (ENE) 3,484 ? -38.5°
